Showing default

KUIPER-00431, 68936

Orbit data source: Space-Track

KUIPER-00431, 68936 is a payload satellite owned by Kuiper Systems (US) in LEO that was launched on Thu, 30 Apr 2026 UTC via an ARIANE 64 launch vehicle from the French Guiana (FRGUI). Payload-class satellites include a variety of spacecraft equipped with specific instruments for various scientific and technological missions. These include communications satellites like Starlink; space stations such as the ISS; scientific satellites like the Hubble; Earth observation satellites from companies like Planet Labs, Umbra, and HawkEye 360; GPS; miniature CubeSats for education and research; and military/defense satellites.

Loading next visibility...
Identifier
68936, 2026-098T
Orbit
LEO
Country
Flag of USUS
Related business
Manufacturer
Kuiper Systems
Mission
Operational spacecraft
Bus & Motor
KUIPER, Unknown motor
Mass
~490 kg wet, ~490 kg dry
Launch date (UTC)
2026-04-30 (1 month ago)
Launch vehicle
ARIANE 64
Launch site
French Guiana (FRGUI)
Object type
Payload
Rocket body
Debris
Shape & HBR
Unknown
Radar Cross Section
Large (>1 m²)

Expand to show TLE details & history
Last TLE update: 3 days ago

TLE from 3 days ago
0 KUIPER-00431
1 68936U 26098T   26155.10653091  .00017494  00000-0  63840-3 0  9990
2 68936  51.8739 131.8050 0018050 100.2940 260.0079 15.28079493  5327
Epoch: 2026-06-04T02:33Z
TLE epoch observation values (Epoch: 2026-06-04T02:33:24.270Z)
Latitude
-0.00002°
Longitude
-159.10169°
Altitude
484.484 km
Speed
7.623 km/s
True Right ascension
08h 47m 13s
True Declination
0° 00' 00"
Sunlit
Object was in daylight at epoch
Visualization orbit readout
Latitude
Unknown
Longitude
Unknown
Altitude
Unknown
Speed
Unknown
Apparent Right ascension
Unknown
Apparent Declination
Unknown
Sunlit
N/A
Visualization observer readout
Local Sidereal Time
02:58:42
Azimuth
Unknown
Elevation
Unknown
Doppler factor
Unknown
Orbital elements
Apogee altitude
494.401 km
Perigee altitude
469.636 km
Semi-major axis
6,860.156 km
Eccentricity
0.00181
Inclination
51.8739°
RAAN
131.805°
Arg. of periapsis
100.294°
True anomaly
259.80428°
Mean anomaly
260.0079°
Eccentric anomaly
259.90608°
Mean motion
3.81981 °/min
Orbital period
94.25 mins
BSTAR
0.0006384
Loading maneuver chart data...
Computing Atmospheric mass density...
Loading historical data...
Loading historical data...
Loading historical data...
Loading historical data...
Loading historical data...
Loading historical data...
Loading historical data...

Documentation

Showing up to 5 results
|